Time,TemperatureF,DewpointF,PressureIn,WindDirection,WindDirectionDegrees,WindSpeedMPH,WindSpeedGustMPH,Humidity,HourlyPrecipIn,Conditions,Clouds,dailyrainin,SoftwareType,DateUTC
2013-07-19 00:00:00,77.3,72.4,29.95,North,10,0.0,0.0,85,0.00,,,0.00,Wunderground v.1.13,2013-07-19 04:00:00,
2013-07-19 00:05:00,77.1,72.2,29.95,North,10,0.0,0.0,85,0.00,,,0.00,Wunderground v.1.13,2013-07-19 04:05:00,
2013-07-19 00:10:00,76.9,72.0,29.95,North,10,0.0,0.0,85,0.00,,,0.00,Wunderground v.1.13,2013-07-19 04:10:00,
2013-07-19 00:15:00,76.7,72.2,29.94,North,10,0.0,0.0,86,0.00,,,0.00,Wunderground v.1.13,2013-07-19 04:15:00,
2013-07-19 00:20:00,76.5,72.0,29.94,North,10,0.0,0.0,86,0.00,,,0.00,Wunderground v.1.13,2013-07-19 04:20:00,
2013-07-19 00:25:00,76.3,71.8,29.94,North,10,0.0,0.0,86,0.00,,,0.00,Wunderground v.1.13,2013-07-19 04:25:00,
2013-07-19 00:35:00,76.0,71.8,29.93,North,10,0.0,0.0,87,0.00,,,0.00,Wunderground v.1.13,2013-07-19 04:35:00,
2013-07-19 00:40:00,75.8,71.7,29.93,North,10,0.0,0.0,87,0.00,,,0.00,Wunderground v.1.13,2013-07-19 04:40:00,
2013-07-19 00:45:00,75.7,71.6,29.94,North,10,0.0,0.0,87,0.00,,,0.00,Wunderground v.1.13,2013-07-19 04:45:00,
2013-07-19 00:50:00,75.6,71.8,29.93,North,10,0.0,0.0,88,0.00,,,0.00,Wunderground v.1.13,2013-07-19 04:50:00,
2013-07-19 01:00:00,75.3,71.5,29.93,North,10,0.0,0.0,88,0.00,,,0.00,Wunderground v.1.13,2013-07-19 05:00:00,
2013-07-19 01:05:00,75.2,71.4,29.94,N/A,-737280,0.0,0.0,88,0.00,,,0.00,Wunderground v.1.13,2013-07-19 05:05:00,
2013-07-19 01:15:00,75.0,71.5,29.94,North,10,0.0,0.0,89,0.00,,,0.00,Wunderground v.1.13,2013-07-19 05:15:00,
2013-07-19 01:20:00,74.9,71.4,29.94,North,10,0.0,0.0,89,0.00,,,0.00,Wunderground v.1.13,2013-07-19 05:20:00,
2013-07-19 01:25:00,74.8,71.3,29.94,North,10,0.0,0.0,89,0.00,,,0.00,Wunderground v.1.13,2013-07-19 05:25:00,
2013-07-19 01:35:00,74.7,71.2,29.93,North,10,0.0,0.0,89,0.00,,,0.00,Wunderground v.1.13,2013-07-19 05:35:00,
2013-07-19 01:40:00,74.6,71.1,29.93,North,10,0.0,0.0,89,0.00,,,0.00,Wunderground v.1.13,2013-07-19 05:40:00,
2013-07-19 01:45:00,74.5,71.0,29.93,North,10,0.0,0.0,89,0.00,,,0.00,Wunderground v.1.13,2013-07-19 05:45:00,
2013-07-19 01:55:00,74.4,71.3,29.93,North,10,0.0,0.0,90,0.00,,,0.00,Wunderground v.1.13,2013-07-19 05:55:00,
2013-07-19 02:00:00,74.3,71.2,29.93,North,10,0.0,0.0,90,0.00,,,0.00,Wunderground v.1.13,2013-07-19 06:00:00,
2013-07-19 02:05:00,74.3,71.2,29.93,North,10,0.0,0.0,90,0.00,,,0.00,Wunderground v.1.13,2013-07-19 06:05:00,
2013-07-19 02:10:00,74.4,71.3,29.93,North,10,0.0,0.0,90,0.00,,,0.00,Wunderground v.1.13,2013-07-19 06:10:00,
2013-07-19 02:20:00,74.5,71.4,29.93,North,10,0.0,0.0,90,0.00,,,0.00,Wunderground v.1.13,2013-07-19 06:20:00,
2013-07-19 02:25:00,74.5,71.7,29.93,North,10,0.0,0.0,91,0.00,,,0.00,Wunderground v.1.13,2013-07-19 06:25:00,
2013-07-19 02:30:00,74.7,71.9,29.93,North,10,0.0,0.0,91,0.00,,,0.00,Wunderground v.1.13,2013-07-19 06:30:00,
2013-07-19 02:35:00,74.8,72.0,29.93,North,10,0.0,0.0,91,0.00,,,0.00,Wunderground v.1.13,2013-07-19 06:35:00,
2013-07-19 02:45:00,74.9,72.4,29.92,North,10,0.0,0.0,92,0.00,,,0.00,Wunderground v.1.13,2013-07-19 06:45:00,
2013-07-19 02:50:00,74.9,72.4,29.93,North,10,0.0,0.0,92,0.00,,,0.00,Wunderground v.1.13,2013-07-19 06:50:00,
2013-07-19 02:55:00,75.1,72.6,29.93,North,10,0.0,0.0,92,0.00,,,0.00,Wunderground v.1.13,2013-07-19 06:55:00,
2013-07-19 03:05:00,75.2,72.7,29.92,North,10,0.0,0.0,92,0.00,,,0.00,Wunderground v.1.13,2013-07-19 07:05:00,
2013-07-19 03:10:00,75.2,72.7,29.92,North,10,0.0,0.0,92,0.00,,,0.00,Wunderground v.1.13,2013-07-19 07:10:00,
2013-07-19 03:15:00,75.3,72.8,29.92,North,10,0.0,0.0,92,0.00,,,0.00,Wunderground v.1.13,2013-07-19 07:15:00,
2013-07-19 03:20:00,75.3,72.8,29.92,North,10,0.0,0.0,92,0.00,,,0.00,Wunderground v.1.13,2013-07-19 07:20:00,
2013-07-19 03:30:00,75.4,72.9,29.92,North,10,0.0,0.0,92,0.00,,,0.00,Wunderground v.1.13,2013-07-19 07:30:00,
2013-07-19 03:35:00,75.4,72.9,29.91,North,10,0.0,0.0,92,0.00,,,0.00,Wunderground v.1.13,2013-07-19 07:35:00,
2013-07-19 03:40:00,75.4,73.2,29.91,North,10,0.0,0.0,93,0.00,,,0.00,Wunderground v.1.13,2013-07-19 07:40:00,
2013-07-19 03:50:00,75.5,73.3,29.91,North,10,0.0,0.0,93,0.00,,,0.00,Wunderground v.1.13,2013-07-19 07:50:00,
2013-07-19 03:55:00,75.5,73.0,29.91,North,10,0.0,0.0,92,0.00,,,0.00,Wunderground v.1.13,2013-07-19 07:55:00,
2013-07-19 04:00:00,75.5,73.0,29.91,North,10,0.0,0.0,92,0.00,,,0.00,Wunderground v.1.13,2013-07-19 08:00:00,
2013-07-19 04:05:00,75.5,73.0,29.91,North,10,0.0,0.0,92,0.00,,,0.00,Wunderground v.1.13,2013-07-19 08:05:00,
2013-07-19 04:15:00,75.5,73.0,29.91,North,10,0.0,0.0,92,0.00,,,0.00,Wunderground v.1.13,2013-07-19 08:15:00,
2013-07-19 04:20:00,75.6,73.1,29.91,North,10,0.0,0.0,92,0.00,,,0.00,Wunderground v.1.13,2013-07-19 08:20:00,
2013-07-19 04:25:00,75.5,73.0,29.91,North,10,0.0,0.0,92,0.00,,,0.00,Wunderground v.1.13,2013-07-19 08:25:00,
2013-07-19 04:35:00,75.6,73.1,29.91,North,10,0.0,0.0,92,0.00,,,0.00,Wunderground v.1.13,2013-07-19 08:35:00,
2013-07-19 04:40:00,75.6,73.1,29.90,North,10,0.0,0.0,92,0.00,,,0.00,Wunderground v.1.13,2013-07-19 08:40:00,
2013-07-19 04:45:00,75.6,73.1,29.90,North,10,0.0,0.0,92,0.00,,,0.00,Wunderground v.1.13,2013-07-19 08:45:00,
2013-07-19 04:55:00,75.7,72.9,29.90,North,10,0.0,0.0,91,0.00,,,0.00,Wunderground v.1.13,2013-07-19 08:55:00,
2013-07-19 05:00:00,75.8,73.0,29.90,North,10,0.0,0.0,91,0.00,,,0.00,Wunderground v.1.13,2013-07-19 09:00:00,
2013-07-19 05:05:00,75.9,73.1,29.90,North,10,0.0,0.0,91,0.00,,,0.00,Wunderground v.1.13,2013-07-19 09:05:00,
2013-07-19 05:10:00,75.9,72.8,29.90,North,10,0.0,0.0,90,0.00,,,0.00,Wunderground v.1.13,2013-07-19 09:10:00,
2013-07-19 05:20:00,76.0,72.9,29.90,North,10,0.0,0.0,90,0.00,,,0.00,Wunderground v.1.13,2013-07-19 09:20:00,
2013-07-19 05:25:00,76.0,72.9,29.90,North,10,0.0,0.0,90,0.00,,,0.00,Wunderground v.1.13,2013-07-19 09:25:00,
2013-07-19 05:30:00,76.0,72.9,29.90,North,10,0.0,0.0,90,0.00,,,0.00,Wunderground v.1.13,2013-07-19 09:30:00,
2013-07-19 05:40:00,76.0,72.9,29.90,North,10,0.0,0.0,90,0.00,,,0.00,Wunderground v.1.13,2013-07-19 09:40:00,
2013-07-19 05:45:00,76.0,72.9,29.90,North,10,0.0,0.0,90,0.00,,,0.00,Wunderground v.1.13,2013-07-19 09:45:00,
2013-07-19 05:50:00,76.0,72.9,29.90,North,10,0.0,0.0,90,0.00,,,0.00,Wunderground v.1.13,2013-07-19 09:50:00,
2013-07-19 05:55:00,76.0,72.9,29.90,North,10,0.0,0.0,90,0.00,,,0.00,Wunderground v.1.13,2013-07-19 09:55:00,
2013-07-19 06:05:00,76.0,72.9,29.90,North,10,0.0,0.0,90,0.00,,,0.00,Wunderground v.1.13,2013-07-19 10:05:00,
2013-07-19 06:10:00,75.9,72.8,29.90,North,10,0.0,0.0,90,0.00,,,0.00,Wunderground v.1.13,2013-07-19 10:10:00,
2013-07-19 06:15:00,75.9,72.8,29.90,North,10,0.0,0.0,90,0.00,,,0.00,Wunderground v.1.13,2013-07-19 10:15:00,
2013-07-19 06:20:00,76.0,72.9,29.89,North,10,0.0,0.0,90,0.00,,,0.00,Wunderground v.1.13,2013-07-19 10:20:00,
2013-07-19 06:30:00,76.1,73.3,29.90,North,10,0.0,0.0,91,0.00,,,0.00,Wunderground v.1.13,2013-07-19 10:30:00,
2013-07-19 06:35:00,76.1,73.3,29.89,North,10,0.0,0.0,91,0.00,,,0.00,Wunderground v.1.13,2013-07-19 10:35:00,
2013-07-19 06:40:00,76.2,73.4,29.89,North,10,0.0,0.0,91,0.00,,,0.00,Wunderground v.1.13,2013-07-19 10:40:00,
2013-07-19 06:50:00,76.3,73.5,29.89,North,10,0.0,0.0,91,0.00,,,0.00,Wunderground v.1.13,2013-07-19 10:50:00,
2013-07-19 06:55:00,76.4,73.2,29.89,North,10,0.0,0.0,90,0.00,,,0.00,Wunderground v.1.13,2013-07-19 10:55:00,
2013-07-19 07:00:00,76.5,73.3,29.89,North,10,0.0,0.0,90,0.00,,,0.00,Wunderground v.1.13,2013-07-19 11:00:00,
2013-07-19 07:05:00,76.6,73.4,29.89,North,10,0.0,0.0,90,0.00,,,0.00,Wunderground v.1.13,2013-07-19 11:05:00,
2013-07-19 07:15:00,76.8,73.6,29.89,North,10,0.0,0.0,90,0.00,,,0.00,Wunderground v.1.13,2013-07-19 11:15:00,
2013-07-19 07:20:00,76.9,73.4,29.89,North,10,0.0,0.0,89,0.00,,,0.00,Wunderground v.1.13,2013-07-19 11:20:00,
2013-07-19 07:25:00,77.0,73.8,29.89,North,10,0.0,0.0,90,0.00,,,0.00,Wunderground v.1.13,2013-07-19 11:25:00,
2013-07-19 07:30:00,77.1,73.6,29.89,North,10,0.0,0.0,89,0.00,,,0.00,Wunderground v.1.13,2013-07-19 11:30:00,
2013-07-19 07:40:00,78.1,74.3,29.89,North,10,0.0,0.0,88,0.00,,,0.00,Wunderground v.1.13,2013-07-19 11:40:00,
2013-07-19 07:45:00,78.9,74.4,29.89,North,10,0.0,0.0,86,0.00,,,0.00,Wunderground v.1.13,2013-07-19 11:45:00,
2013-07-19 07:50:00,79.4,74.5,29.89,North,10,0.0,0.0,85,0.00,,,0.00,Wunderground v.1.13,2013-07-19 11:50:00,
2013-07-19 08:00:00,80.2,74.9,29.89,North,10,0.0,0.0,84,0.00,,,0.00,Wunderground v.1.13,2013-07-19 12:00:00,
2013-07-19 08:05:00,80.6,75.0,29.89,North,10,0.0,0.0,83,0.00,,,0.00,Wunderground v.1.13,2013-07-19 12:05:00,
2013-07-19 08:10:00,80.9,74.9,29.89,North,10,0.0,0.0,82,0.00,,,0.00,Wunderground v.1.13,2013-07-19 12:10:00,
2013-07-19 08:15:00,81.2,75.2,29.89,North,10,0.0,0.0,82,0.00,,,0.00,Wunderground v.1.13,2013-07-19 12:15:00,
2013-07-19 08:25:00,81.6,75.2,29.89,North,10,0.0,0.0,81,0.00,,,0.00,Wunderground v.1.13,2013-07-19 12:25:00,
2013-07-19 08:30:00,81.9,75.5,29.89,North,10,0.0,0.0,81,0.00,,,0.00,Wunderground v.1.13,2013-07-19 12:30:00,
2013-07-19 08:35:00,82.2,74.7,29.89,North,10,0.0,0.0,78,0.00,,,0.00,Wunderground v.1.13,2013-07-19 12:35:00,
2013-07-19 08:45:00,83.2,76.0,29.88,North,9,0.0,0.0,79,0.00,,,0.00,Wunderground v.1.13,2013-07-19 12:45:00,
2013-07-19 08:50:00,83.7,75.3,29.88,North,10,0.0,0.0,76,0.00,,,0.00,Wunderground v.1.13,2013-07-19 12:50:00,
2013-07-19 08:55:00,84.5,76.1,29.88,North,10,0.0,0.0,76,0.00,,,0.00,Wunderground v.1.13,2013-07-19 12:55:00,
2013-07-19 09:05:00,85.8,76.1,29.88,North,5,0.0,0.0,73,0.00,,,0.00,Wunderground v.1.13,2013-07-19 13:05:00,
2013-07-19 09:10:00,86.2,76.9,29.89,North,5,0.0,0.0,74,0.00,,,0.00,Wunderground v.1.13,2013-07-19 13:10:00,
2013-07-19 09:20:00,86.3,75.4,29.88,North,5,0.0,0.0,70,0.00,,,0.00,Wunderground v.1.13,2013-07-19 13:20:00,
2013-07-19 09:25:00,86.0,76.3,29.88,North,5,0.0,0.0,73,0.00,,,0.00,Wunderground v.1.13,2013-07-19 13:25:00,
2013-07-19 09:30:00,86.4,75.9,29.88,North,5,0.0,0.0,71,0.00,,,0.00,Wunderground v.1.13,2013-07-19 13:30:00,
2013-07-19 09:35:00,86.5,76.0,29.88,North,5,0.0,0.0,71,0.00,,,0.00,Wunderground v.1.13,2013-07-19 13:35:00,
2013-07-19 09:45:00,87.4,76.0,29.88,North,360,0.0,0.0,69,0.00,,,0.00,Wunderground v.1.13,2013-07-19 13:45:00,
2013-07-19 09:50:00,87.7,76.7,29.88,North,360,0.0,0.0,70,0.00,,,0.00,Wunderground v.1.13,2013-07-19 13:50:00,
2013-07-19 09:55:00,88.3,75.9,29.88,North,360,0.0,0.0,67,0.00,,,0.00,Wunderground v.1.13,2013-07-19 13:55:00,
2013-07-19 10:00:00,88.6,75.8,29.88,North,360,0.0,0.0,66,0.00,,,0.00,Wunderground v.1.13,2013-07-19 14:00:00,
2013-07-19 10:10:00,89.2,75.4,29.87,North,5,0.0,0.0,64,0.00,,,0.00,Wunderground v.1.13,2013-07-19 14:10:00,
2013-07-19 10:15:00,89.3,75.0,29.88,North,360,0.0,0.0,63,0.00,,,0.00,Wunderground v.1.13,2013-07-19 14:15:00,
2013-07-19 10:20:00,89.5,75.7,29.87,North,360,0.0,0.0,64,0.00,,,0.00,Wunderground v.1.13,2013-07-19 14:20:00,
2013-07-19 10:30:00,90.0,76.2,29.87,North,360,0.0,0.0,64,0.00,,,0.00,Wunderground v.1.13,2013-07-19 14:30:00,
2013-07-19 10:35:00,90.4,75.6,29.87,North,360,0.0,0.0,62,0.00,,,0.00,Wunderground v.1.13,2013-07-19 14:35:00,
2013-07-19 10:40:00,91.0,76.7,29.87,North,5,0.0,0.0,63,0.00,,,0.00,Wunderground v.1.13,2013-07-19 14:40:00,
2013-07-19 10:50:00,90.9,75.6,29.87,North,5,0.0,0.0,61,0.00,,,0.00,Wunderground v.1.13,2013-07-19 14:50:00,
2013-07-19 10:55:00,91.4,76.1,29.87,North,5,0.0,0.0,61,0.00,,,0.00,Wunderground v.1.13,2013-07-19 14:55:00,
2013-07-19 11:00:00,91.4,76.1,29.87,North,360,0.0,0.0,61,0.00,,,0.00,Wunderground v.1.13,2013-07-19 15:00:00,
2013-07-19 11:10:00,91.6,75.2,29.87,North,5,0.0,0.0,59,0.00,,,0.00,Wunderground v.1.13,2013-07-19 15:10:00,
2013-07-19 11:15:00,91.9,75.0,29.86,North,360,0.0,0.0,58,0.00,,,0.00,Wunderground v.1.13,2013-07-19 15:15:00,
2013-07-19 11:20:00,92.0,75.1,29.86,North,5,0.0,0.0,58,0.00,,,0.00,Wunderground v.1.13,2013-07-19 15:20:00,
2013-07-19 11:30:00,92.4,76.0,29.86,North,5,0.0,0.0,59,0.00,,,0.00,Wunderground v.1.13,2013-07-19 15:30:00,
2013-07-19 11:35:00,92.3,75.9,29.86,North,360,0.0,0.0,59,0.00,,,0.00,Wunderground v.1.13,2013-07-19 15:35:00,
2013-07-19 11:40:00,92.6,75.1,29.86,North,360,0.0,0.0,57,0.00,,,0.00,Wunderground v.1.13,2013-07-19 15:40:00,
2013-07-19 11:45:00,93.0,75.0,29.86,North,360,0.0,0.0,56,0.00,,,0.00,Wunderground v.1.13,2013-07-19 15:45:00,
2013-07-19 11:55:00,93.9,76.4,29.86,North,5,0.0,0.0,57,0.00,,,0.00,Wunderground v.1.13,2013-07-19 15:55:00,
2013-07-19 12:00:00,93.5,74.9,29.86,North,5,0.0,0.0,55,0.00,,,0.00,Wunderground v.1.13,2013-07-19 16:00:00,
2013-07-19 12:05:00,93.0,74.4,29.85,North,5,0.0,0.0,55,0.00,,,0.00,Wunderground v.1.13,2013-07-19 16:05:00,
2013-07-19 12:15:00,92.9,74.9,29.84,North,360,0.0,0.0,56,0.00,,,0.00,Wunderground v.1.13,2013-07-19 16:15:00,
2013-07-19 12:20:00,93.6,74.5,29.84,North,5,0.0,0.0,54,0.00,,,0.00,Wunderground v.1.13,2013-07-19 16:20:00,
2013-07-19 12:25:00,93.4,75.4,29.84,North,5,0.0,0.0,56,0.00,,,0.00,Wunderground v.1.13,2013-07-19 16:25:00,
2013-07-19 12:35:00,93.5,75.4,29.84,North,5,0.0,0.0,56,0.00,,,0.00,Wunderground v.1.13,2013-07-19 16:35:00,
2013-07-19 12:40:00,94.0,75.9,29.83,North,360,0.0,0.0,56,0.00,,,0.00,Wunderground v.1.13,2013-07-19 16:40:00,
2013-07-19 12:45:00,94.1,76.5,29.83,North,360,0.0,0.0,57,0.00,,,0.00,Wunderground v.1.13,2013-07-19 16:45:00,
2013-07-19 12:55:00,94.0,75.4,29.83,North,5,0.0,0.0,55,0.00,,,0.00,Wunderground v.1.13,2013-07-19 16:55:00,
2013-07-19 13:00:00,93.9,75.8,29.83,North,5,0.0,0.0,56,0.00,,,0.00,Wunderground v.1.13,2013-07-19 17:00:00,
2013-07-19 13:05:00,94.2,76.6,29.83,North,5,0.0,0.0,57,0.00,,,0.00,Wunderground v.1.13,2013-07-19 17:05:00,
2013-07-19 13:15:00,94.0,75.9,29.82,North,5,0.0,0.0,56,0.00,,,0.00,Wunderground v.1.13,2013-07-19 17:15:00,
2013-07-19 13:20:00,94.3,75.6,29.82,North,360,0.0,0.0,55,0.00,,,0.00,Wunderground v.1.13,2013-07-19 17:20:00,
2013-07-19 13:25:00,94.5,75.8,29.82,North,360,0.0,0.0,55,0.00,,,0.00,Wunderground v.1.13,2013-07-19 17:25:00,
2013-07-19 13:35:00,94.7,76.0,29.81,North,5,0.0,0.0,55,0.00,,,0.00,Wunderground v.1.13,2013-07-19 17:35:00,
2013-07-19 13:40:00,95.0,76.3,29.82,North,5,0.0,0.0,55,0.00,,,0.00,Wunderground v.1.13,2013-07-19 17:40:00,
2013-07-19 13:45:00,94.6,76.5,29.82,North,5,0.0,0.0,56,0.00,,,0.00,Wunderground v.1.13,2013-07-19 17:45:00,
2013-07-19 13:50:00,94.3,76.2,29.81,North,360,0.0,0.0,56,0.00,,,0.00,Wunderground v.1.13,2013-07-19 17:50:00,
2013-07-19 14:00:00,95.3,76.0,29.81,North,5,0.0,0.0,54,0.00,,,0.00,Wunderground v.1.13,2013-07-19 18:00:00,
2013-07-19 14:05:00,95.2,75.9,29.81,North,5,0.0,0.0,54,0.00,,,0.00,Wunderground v.1.13,2013-07-19 18:05:00,
2013-07-19 14:10:00,96.1,76.2,29.81,North,5,0.0,0.0,53,0.00,,,0.00,Wunderground v.1.13,2013-07-19 18:10:00,
2013-07-19 14:15:00,95.7,75.3,29.80,North,5,0.0,0.0,52,0.00,,,0.00,Wunderground v.1.13,2013-07-19 18:15:00,
2013-07-19 14:25:00,95.8,74.8,29.80,North,360,0.0,0.0,51,0.00,,,0.00,Wunderground v.1.13,2013-07-19 18:25:00,
2013-07-19 14:30:00,95.6,75.2,29.80,North,360,0.0,0.0,52,0.00,,,0.00,Wunderground v.1.13,2013-07-19 18:30:00,
2013-07-19 14:35:00,95.9,74.9,29.79,North,5,0.0,0.0,51,0.00,,,0.00,Wunderground v.1.13,2013-07-19 18:35:00,
2013-07-19 14:45:00,95.7,75.8,29.79,North,5,0.0,0.0,53,0.00,,,0.00,Wunderground v.1.13,2013-07-19 18:45:00,
2013-07-19 14:50:00,95.2,75.9,29.79,North,5,0.0,0.0,54,0.00,,,0.00,Wunderground v.1.13,2013-07-19 18:50:00,
2013-07-19 14:55:00,93.9,75.8,29.79,North,5,0.0,0.0,56,0.00,,,0.00,Wunderground v.1.13,2013-07-19 18:55:00,
2013-07-19 15:05:00,94.4,74.6,29.78,North,360,0.0,0.0,53,0.00,,,0.00,Wunderground v.1.13,2013-07-19 19:05:00,
2013-07-19 15:10:00,94.2,75.0,29.78,North,5,0.0,0.0,54,0.00,,,0.00,Wunderground v.1.13,2013-07-19 19:10:00,
2013-07-19 15:15:00,94.3,75.1,29.77,North,5,0.0,0.0,54,0.00,,,0.00,Wunderground v.1.13,2013-07-19 19:15:00,
2013-07-19 15:25:00,94.2,75.6,29.77,North,360,0.0,0.0,55,0.00,,,0.00,Wunderground v.1.13,2013-07-19 19:25:00,
2013-07-19 15:30:00,94.6,75.9,29.77,North,5,0.0,0.0,55,0.00,,,0.00,Wunderground v.1.13,2013-07-19 19:30:00,
2013-07-19 15:35:00,94.4,75.7,29.77,North,5,0.0,0.0,55,0.00,,,0.00,Wunderground v.1.13,2013-07-19 19:35:00,
2013-07-19 15:40:00,94.4,76.8,29.76,North,360,0.0,0.0,57,0.00,,,0.00,Wunderground v.1.13,2013-07-19 19:40:00,
2013-07-19 15:50:00,95.1,76.4,29.76,North,5,0.0,0.0,55,0.00,,,0.00,Wunderground v.1.13,2013-07-19 19:50:00,
2013-07-19 15:55:00,95.4,76.7,29.76,North,5,0.0,0.0,55,0.00,,,0.00,Wunderground v.1.13,2013-07-19 19:55:00,
2013-07-19 16:00:00,95.0,75.2,29.75,North,5,0.0,0.0,53,0.00,,,0.00,Wunderground v.1.13,2013-07-19 20:00:00,
2013-07-19 16:05:00,94.6,75.4,29.76,North,5,0.0,0.0,54,0.00,,,0.00,Wunderground v.1.13,2013-07-19 20:05:00,
2013-07-19 16:15:00,94.0,74.8,29.75,North,360,0.0,0.0,54,0.00,,,0.00,Wunderground v.1.13,2013-07-19 20:15:00,
2013-07-19 16:20:00,93.8,75.2,29.75,North,5,0.0,0.0,55,0.00,,,0.00,Wunderground v.1.13,2013-07-19 20:20:00,
2013-07-19 16:25:00,94.2,75.0,29.75,North,5,0.0,0.0,54,0.00,,,0.00,Wunderground v.1.13,2013-07-19 20:25:00,
2013-07-19 16:35:00,94.5,75.8,29.75,North,5,0.0,0.0,55,0.00,,,0.00,Wunderground v.1.13,2013-07-19 20:35:00,
2013-07-19 16:40:00,94.2,75.6,29.75,North,5,0.0,0.0,55,0.00,,,0.00,Wunderground v.1.13,2013-07-19 20:40:00,
2013-07-19 16:45:00,94.0,74.8,29.75,North,5,0.0,0.0,54,0.00,,,0.00,Wunderground v.1.13,2013-07-19 20:45:00,
2013-07-19 16:55:00,92.7,75.2,29.74,North,360,0.0,0.0,57,0.00,,,0.00,Wunderground v.1.13,2013-07-19 20:55:00,
2013-07-19 17:00:00,92.1,75.2,29.74,North,5,0.0,0.0,58,0.00,,,0.00,Wunderground v.1.13,2013-07-19 21:00:00,
2013-07-19 17:05:00,91.7,75.3,29.73,North,5,0.0,0.0,59,0.00,,,0.00,Wunderground v.1.13,2013-07-19 21:05:00,
2013-07-19 17:15:00,92.4,76.0,29.73,N/A,-737280,0.0,0.0,59,0.00,,,0.00,Wunderground v.1.13,2013-07-19 21:15:00,
2013-07-19 17:20:00,92.7,76.8,29.73,N/A,-737280,0.0,0.0,60,0.00,,,0.00,Wunderground v.1.13,2013-07-19 21:20:00,
2013-07-19 17:25:00,93.0,77.6,29.73,N/A,-737280,0.0,0.0,61,0.00,,,0.00,Wunderground v.1.13,2013-07-19 21:25:00,
2013-07-19 17:30:00,92.5,77.6,29.73,N/A,-737280,0.0,0.0,62,0.00,,,0.00,Wunderground v.1.13,2013-07-19 21:30:00,
2013-07-19 17:35:00,91.9,78.0,29.73,N/A,-737280,0.0,0.0,64,0.00,,,0.00,Wunderground v.1.13,2013-07-19 21:35:00,
2013-07-19 17:40:00,91.3,77.9,29.72,N/A,-737280,0.0,0.0,65,0.00,,,0.00,Wunderground v.1.13,2013-07-19 21:40:00,
2013-07-19 17:45:00,90.7,77.8,29.73,N/A,-737280,0.0,0.0,66,0.00,,,0.00,Wunderground v.1.13,2013-07-19 21:45:00,
2013-07-19 17:50:00,90.4,77.9,29.73,N/A,-737280,0.0,0.0,67,0.00,,,0.00,Wunderground v.1.13,2013-07-19 21:50:00,
2013-07-19 17:55:00,90.2,77.8,29.73,N/A,-737280,0.0,0.0,67,0.00,,,0.00,Wunderground v.1.13,2013-07-19 21:55:00,
2013-07-19 18:05:00,90.0,77.6,29.72,N/A,-737280,0.0,0.0,67,0.00,,,0.00,Wunderground v.1.13,2013-07-19 22:05:00,
2013-07-19 18:15:00,89.6,77.6,29.73,North,5,0.0,0.0,68,0.00,,,0.00,Wunderground v.1.13,2013-07-19 22:15:00,
2013-07-19 18:20:00,89.6,78.1,29.73,North,360,0.0,0.0,69,0.00,,,0.00,Wunderground v.1.13,2013-07-19 22:20:00,
2013-07-19 18:25:00,89.7,78.2,29.73,North,5,0.0,0.0,69,0.00,,,0.00,Wunderground v.1.13,2013-07-19 22:25:00,
2013-07-19 18:35:00,89.5,78.0,29.73,North,5,0.0,0.0,69,0.00,,,0.00,Wunderground v.1.13,2013-07-19 22:35:00,
2013-07-19 18:40:00,89.4,77.9,29.73,North,5,0.0,0.0,69,0.00,,,0.00,Wunderground v.1.13,2013-07-19 22:40:00,
2013-07-19 18:45:00,89.2,78.1,29.73,North,360,0.0,0.0,70,0.00,,,0.00,Wunderground v.1.13,2013-07-19 22:45:00,
2013-07-19 18:55:00,88.9,78.3,29.73,North,5,0.0,0.0,71,0.00,,,0.00,Wunderground v.1.13,2013-07-19 22:55:00,
2013-07-19 19:00:00,88.7,78.1,29.73,North,360,0.0,0.0,71,0.00,,,0.00,Wunderground v.1.13,2013-07-19 23:00:00,
2013-07-19 19:05:00,88.6,78.4,29.73,North,360,0.0,0.0,72,0.00,,,0.00,Wunderground v.1.13,2013-07-19 23:05:00,
2013-07-19 19:10:00,88.4,78.2,29.73,North,5,0.0,0.0,72,0.00,,,0.00,Wunderground v.1.13,2013-07-19 23:10:00,
2013-07-19 19:20:00,88.3,78.5,29.74,North,360,0.0,0.0,73,0.00,,,0.00,Wunderground v.1.13,2013-07-19 23:20:00,
2013-07-19 19:25:00,88.1,78.3,29.74,North,5,0.0,0.0,73,0.00,,,0.00,Wunderground v.1.13,2013-07-19 23:25:00,
2013-07-19 19:35:00,87.9,78.2,29.74,North,360,0.0,0.0,73,0.00,,,0.00,Wunderground v.1.13,2013-07-19 23:35:00,
2013-07-19 19:40:00,87.8,78.5,29.74,North,5,0.0,0.0,74,0.00,,,0.00,Wunderground v.1.13,2013-07-19 23:40:00,
2013-07-19 19:45:00,87.7,78.4,29.74,North,32767,0.0,0.0,74,0.00,,,0.00,Wunderground v.1.13,2013-07-19 23:45:00,
2013-07-19 19:50:00,87.6,78.7,29.74,North,32767,0.0,0.0,75,0.00,,,0.00,Wunderground v.1.13,2013-07-19 23:50:00,
2013-07-19 20:00:00,87.4,78.5,29.74,North,360,0.0,0.0,75,0.00,,,0.00,Wunderground v.1.13,2013-07-20 00:00:00,
2013-07-19 20:05:00,87.3,78.8,29.74,North,360,0.0,0.0,76,0.00,,,0.00,Wunderground v.1.13,2013-07-20 00:05:00,
2013-07-19 20:10:00,87.1,78.6,29.74,North,360,0.0,0.0,76,0.00,,,0.00,Wunderground v.1.13,2013-07-20 00:10:00,
2013-07-19 20:15:00,86.9,78.8,29.74,North,360,0.0,0.0,77,0.00,,,0.00,Wunderground v.1.13,2013-07-20 00:15:00,
2013-07-19 20:25:00,86.7,79.0,29.74,North,32767,0.0,0.0,78,0.00,,,0.00,Wunderground v.1.13,2013-07-20 00:25:00,
2013-07-19 20:30:00,86.6,78.9,29.74,North,32767,0.0,0.0,78,0.00,,,0.00,Wunderground v.1.13,2013-07-20 00:30:00,
2013-07-19 20:35:00,86.5,78.8,29.74,North,360,0.0,0.0,78,0.00,,,0.00,Wunderground v.1.13,2013-07-20 00:35:00,
2013-07-19 20:45:00,86.2,78.9,29.75,North,360,0.0,0.0,79,0.00,,,0.00,Wunderground v.1.13,2013-07-20 00:45:00,
2013-07-19 20:50:00,86.1,78.8,29.75,North,360,0.0,0.0,79,0.00,,,0.00,Wunderground v.1.13,2013-07-20 00:50:00,
2013-07-19 20:55:00,86.0,78.7,29.75,North,32767,0.0,0.0,79,0.00,,,0.00,Wunderground v.1.13,2013-07-20 00:55:00,
2013-07-19 21:05:00,85.8,78.9,29.76,North,32767,0.0,0.0,80,0.00,,,0.00,Wunderground v.1.13,2013-07-20 01:05:00,
2013-07-19 21:10:00,85.7,78.8,29.76,North,32767,0.0,0.0,80,0.00,,,0.00,Wunderground v.1.13,2013-07-20 01:10:00,
2013-07-19 21:15:00,85.6,78.7,29.76,North,32767,0.0,0.0,80,0.00,,,0.00,Wunderground v.1.13,2013-07-20 01:15:00,
2013-07-19 21:25:00,85.4,78.5,29.76,North,32767,0.0,0.0,80,0.00,,,0.00,Wunderground v.1.13,2013-07-20 01:25:00,
2013-07-19 21:30:00,85.3,78.4,29.76,North,32767,0.0,0.0,80,0.00,,,0.00,Wunderground v.1.13,2013-07-20 01:30:00,
2013-07-19 21:35:00,85.2,78.3,29.76,North,360,0.0,0.0,80,0.00,,,0.00,Wunderground v.1.13,2013-07-20 01:35:00,
2013-07-19 21:45:00,85.0,78.5,29.76,North,360,0.0,0.0,81,0.00,,,0.00,Wunderground v.1.13,2013-07-20 01:45:00,
2013-07-19 21:50:00,84.8,78.3,29.76,North,360,0.0,0.0,81,0.00,,,0.00,Wunderground v.1.13,2013-07-20 01:50:00,
2013-07-19 22:00:00,84.6,78.1,29.76,North,32767,0.0,0.0,81,0.00,,,0.00,Wunderground v.1.13,2013-07-20 02:00:00,
2013-07-19 22:05:00,84.5,78.0,29.76,North,32767,0.0,0.0,81,0.00,,,0.00,Wunderground v.1.13,2013-07-20 02:05:00,
2013-07-19 22:10:00,84.4,77.9,29.76,North,32767,0.0,0.0,81,0.00,,,0.00,Wunderground v.1.13,2013-07-20 02:10:00,
2013-07-19 22:15:00,84.2,78.1,29.76,North,32767,0.0,0.0,82,0.00,,,0.00,Wunderground v.1.13,2013-07-20 02:15:00,
2013-07-19 22:25:00,83.9,77.8,29.76,North,360,0.0,0.0,82,0.00,,,0.00,Wunderground v.1.13,2013-07-20 02:25:00,
2013-07-19 22:30:00,83.8,77.7,29.76,North,360,0.0,0.0,82,0.00,,,0.00,Wunderground v.1.13,2013-07-20 02:30:00,
2013-07-19 22:35:00,83.6,77.5,29.76,North,32767,0.0,0.0,82,0.00,,,0.00,Wunderground v.1.13,2013-07-20 02:35:00,
2013-07-19 22:45:00,83.4,77.3,29.77,North,32767,0.0,0.0,82,0.00,,,0.00,Wunderground v.1.13,2013-07-20 02:45:00,
2013-07-19 22:50:00,83.3,77.6,29.76,North,32767,0.0,0.0,83,0.00,,,0.00,Wunderground v.1.13,2013-07-20 02:50:00,
2013-07-19 22:55:00,83.2,77.1,29.76,North,32767,0.0,0.0,82,0.00,,,0.00,Wunderground v.1.13,2013-07-20 02:55:00,
2013-07-19 23:05:00,83.1,77.0,29.76,North,32767,0.0,0.0,82,0.00,,,0.00,Wunderground v.1.13,2013-07-20 03:05:00,
2013-07-19 23:10:00,83.0,76.9,29.76,North,32767,0.0,0.0,82,0.00,,,0.00,Wunderground v.1.13,2013-07-20 03:10:00,
2013-07-19 23:15:00,83.0,76.9,29.76,North,360,0.0,0.0,82,0.00,,,0.00,Wunderground v.1.13,2013-07-20 03:15:00,
2013-07-19 23:20:00,82.9,76.8,29.76,North,32767,0.0,0.0,82,0.00,,,0.00,Wunderground v.1.13,2013-07-20 03:20:00,
2013-07-19 23:30:00,82.8,76.7,29.76,North,32767,0.0,0.0,82,0.00,,,0.00,Wunderground v.1.13,2013-07-20 03:30:00,
2013-07-19 23:35:00,82.8,76.7,29.75,North,360,0.0,0.0,82,0.00,,,0.00,Wunderground v.1.13,2013-07-20 03:35:00,
2013-07-19 23:40:00,82.8,76.7,29.75,North,360,0.0,0.0,82,0.00,,,0.00,Wunderground v.1.13,2013-07-20 03:40:00,
2013-07-19 23:50:00,82.8,76.7,29.75,North,32767,0.0,0.0,82,0.00,,,0.00,Wunderground v.1.13,2013-07-20 03:50:00,
2013-07-19 23:55:00,82.7,76.3,29.75,North,32767,0.0,0.0,81,0.00,,,0.00,Wunderground v.1.13,2013-07-20 03:55:00,